Weather History for PATG - September, 2013

Change the Weather History Date:

Wednesday, September 4, 2013

  Actual Average Record
Temperature  
Mean Temperature 48 °F -  
Max Temperature 51 °F 54 °F 62 °F (2006)
Min Temperature 44 °F 41 °F 32 °F (2004)
Degree Days  
Heating Degree Days 18    
Moisture  
Dew Point 44 °F    
Average Humidity 81    
Maximum Humidity 100    
Minimum Humidity 67    
Precipitation  
Precipitation 0.08 in - - ()
Sea Level Pressure  
Sea Level Pressure 29.46 in    
Wind  
Wind Speed 14 mph (SW)    
Max Wind Speed 26 mph    
Max Gust Speed 31 mph    
Visibility 10 miles    
Events      
Averages and records for this station are not official NWS values.
T = Trace of Precipitation, MM = Missing Value Source: NWS Daily Summary

Daily Weather History Graph

Daily Weather History Graph

Search for Another Location

Airport or City:

Trip Planner

Search our weather history database for the weather conditions in past years. The results will help you decide how hot, cold, wet, or windy it might be!

Date:

Astronomy

Sep. 04, 2013 Rise Set
Actual Time 7:46 AM AKDT 9:32 PM AKDT
Civil Twilight 7:04 AM AKDT 10:15 PM AKDT
Nautical Twilight 6:09 AM AKDT 11:08 PM AKDT
Astronomical Twilight 5:04 AM AKDT 12:13 AM AKDT
Moon 7:14 AM AKDT (9/4) 8:46 PM AKDT (9/4)
Length of Visible Light 15h 10m
Length of Day
13h 45m
Waning Crescent, 0% of the Moon is Illuminated
Sep 4
Waning Crescent
Sep 5
New
Sep 12
First Quarter
Sep 19
Full
Sep 26
Last Quarter

Hourly Weather History & Observations

Time (AKDT) Temp. Windchill Dew Point Humidity Pressure Visibility Wind Dir Wind Speed Gust Speed Precip Events Conditions
12:16 AM 51.8 °F - 48.2 °F 88% 29.22 in 5.0 mi SSW 16.1 mph - 0.02 in   Overcast
12:36 AM 50.0 °F - 46.4 °F 87% 29.23 in 10.0 mi WSW 9.2 mph - 0.02 in   Mostly Cloudy
12:56 AM 50.0 °F - 46.4 °F 87% 29.23 in 10.0 mi WSW 6.9 mph - 0.02 in   Overcast
1:16 AM 50.0 °F - 46.4 °F 87% 29.24 in 9.0 mi WSW 8.1 mph - N/A   Overcast
1:36 AM 48.2 °F - 46.4 °F 93% 29.24 in 4.0 mi WSW 8.1 mph - N/A   Overcast
1:56 AM 50.0 °F - 48.2 °F 94% 29.25 in 7.0 mi WSW 8.1 mph - 0.01 in   Overcast
2:16 AM 48.2 °F - 46.4 °F 93% 29.25 in 3.0 mi WSW 6.9 mph - 0.01 in   Overcast
2:36 AM 48.2 °F - 46.4 °F 93% 29.26 in 9.0 mi WSW 8.1 mph - 0.02 in   Overcast
2:56 AM 48.2 °F - 46.4 °F 93% 29.26 in 10.0 mi WSW 9.2 mph - 0.02 in   Mostly Cloudy
3:16 AM 48.2 °F - 48.2 °F 100% 29.27 in 10.0 mi WSW 10.4 mph - 0.01 in   Overcast
3:36 AM 50.0 °F - 48.2 °F 94% 29.27 in 9.0 mi SW 10.4 mph - 0.02 in   Overcast
3:56 AM 48.2 °F - 46.4 °F 93% 29.27 in 10.0 mi WSW 11.5 mph - 0.03 in   Overcast
4:16 AM 48.2 °F - 46.4 °F 93% 29.29 in 10.0 mi West 19.6 mph 24.2 mph N/A   Overcast
4:36 AM 48.2 °F - 44.6 °F 87% 29.30 in 10.0 mi West 16.1 mph 23.0 mph N/A   Overcast
4:56 AM 46.4 °F 40.1 °F 44.6 °F 93% 29.31 in 10.0 mi West 15.0 mph 21.9 mph N/A   Overcast
5:16 AM 46.4 °F 40.1 °F 42.8 °F 87% 29.32 in 10.0 mi West 15.0 mph 21.9 mph N/A   Overcast
5:36 AM 46.4 °F 40.7 °F 42.8 °F 87% 29.34 in 10.0 mi WSW 12.7 mph - N/A   Overcast
5:56 AM 46.4 °F 40.1 °F 42.8 °F 87% 29.35 in 10.0 mi West 15.0 mph 21.9 mph N/A   Overcast
6:16 AM 46.4 °F 40.4 °F 42.8 °F 87% 29.37 in 10.0 mi WSW 13.8 mph - N/A   Overcast
6:36 AM 46.4 °F 40.4 °F 41.0 °F 81% 29.37 in 10.0 mi WSW 13.8 mph - N/A   Overcast
6:56 AM 44.6 °F 37.4 °F 42.8 °F 93% 29.38 in 10.0 mi WSW 16.1 mph 20.7 mph N/A   Mostly Cloudy
7:16 AM 44.6 °F 38.1 °F 42.8 °F 93% 29.39 in 10.0 mi WSW 13.8 mph - N/A   Mostly Cloudy
7:36 AM 44.6 °F 39.7 °F 39.2 °F 81% 29.40 in 10.0 mi WSW 9.2 mph - N/A   Partly Cloudy
7:56 AM 44.6 °F 38.8 °F 39.2 °F 81% 29.41 in 10.0 mi WSW 11.5 mph - N/A   Partly Cloudy
8:16 AM 44.6 °F 37.4 °F 41.0 °F 87% 29.43 in 10.0 mi WSW 16.1 mph - N/A   Mostly Cloudy
8:36 AM 44.6 °F 38.1 °F 39.2 °F 81% 29.43 in 10.0 mi WSW 13.8 mph - N/A   Overcast
8:56 AM 46.4 °F 41.1 °F 41.0 °F 81% 29.44 in 10.0 mi West 11.5 mph - N/A   Overcast
9:16 AM 46.4 °F 42.9 °F 39.2 °F 76% 29.45 in 10.0 mi WSW 6.9 mph - N/A   Mostly Cloudy
9:36 AM 46.4 °F 42.4 °F 41.0 °F 81% 29.45 in 10.0 mi WSW 8.1 mph - N/A   Scattered Clouds
9:56 AM 46.4 °F 41.5 °F 41.0 °F 81% 29.46 in 10.0 mi WSW 10.4 mph - N/A   Mostly Cloudy
10:16 AM 46.4 °F 40.7 °F 39.2 °F 76% 29.47 in 10.0 mi SW 12.7 mph - N/A   Overcast
10:36 AM 46.4 °F 41.9 °F 39.2 °F 76% 29.48 in 10.0 mi SW 9.2 mph - N/A   Overcast
10:56 AM 46.4 °F 41.9 °F 41.0 °F 81% 29.48 in 10.0 mi SW 9.2 mph - N/A   Overcast
11:16 AM 48.2 °F - 42.8 °F 82% 29.48 in 10.0 mi WSW 9.2 mph - N/A   Overcast
11:36 AM 48.2 °F - 41.0 °F 76% 29.49 in 9.0 mi WSW 8.1 mph - N/A   Overcast
11:56 AM 48.2 °F - 41.0 °F 76% 29.50 in 10.0 mi South 20.7 mph 24.2 mph N/A   Mostly Cloudy
12:16 PM 50.0 °F - 41.0 °F 71% 29.51 in 10.0 mi SW 26.5 mph - N/A   Overcast
12:36 PM 50.0 °F - 41.0 °F 71% 29.51 in 10.0 mi SSW 18.4 mph - N/A   Overcast
12:56 PM 51.8 °F - 42.8 °F 71% 29.52 in 10.0 mi SSW 17.3 mph - N/A   Scattered Clouds
1:16 PM 51.8 °F - 41.0 °F 67% 29.52 in 10.0 mi SW 16.1 mph - N/A   Mostly Cloudy
1:36 PM 51.8 °F - 41.0 °F 67% 29.53 in 10.0 mi SSW 20.7 mph - N/A   Overcast
1:56 PM 51.8 °F - 42.8 °F 71% 29.53 in 10.0 mi SSW 23.0 mph 27.6 mph N/A   Overcast
2:16 PM 51.8 °F - 42.8 °F 71% 29.53 in 10.0 mi South 25.3 mph - N/A   Overcast
2:36 PM 50.0 °F - 42.8 °F 76% 29.54 in 10.0 mi South 23.0 mph - N/A   Overcast
2:56 PM 50.0 °F - 44.6 °F 82% 29.54 in 10.0 mi South 23.0 mph 27.6 mph N/A   Mostly Cloudy
3:16 PM 51.8 °F - 44.6 °F 76% 29.53 in 10.0 mi South 25.3 mph - N/A   Mostly Cloudy
3:36 PM 51.8 °F - 44.6 °F 76% 29.53 in 10.0 mi South 26.5 mph 31.1 mph N/A   Overcast
3:56 PM 51.8 °F - 44.6 °F 76% 29.54 in 10.0 mi South 21.9 mph - N/A   Overcast
4:16 PM 51.8 °F - 44.6 °F 76% 29.55 in 10.0 mi South 23.0 mph - N/A   Scattered Clouds
4:36 PM 51.8 °F - 44.6 °F 76% 29.55 in 10.0 mi SSW 23.0 mph - N/A   Mostly Cloudy
4:56 PM 51.8 °F - 44.6 °F 76% 29.55 in 10.0 mi South 23.0 mph - N/A   Mostly Cloudy
5:16 PM 51.8 °F - 42.8 °F 71% 29.56 in 10.0 mi SSW 21.9 mph - N/A   Overcast
5:36 PM 51.8 °F - 44.6 °F 76% 29.56 in 10.0 mi South 20.7 mph - N/A   Mostly Cloudy
5:56 PM 51.8 °F - 44.6 °F 76% 29.56 in 10.0 mi South 21.9 mph - N/A   Mostly Cloudy
6:16 PM 51.8 °F - 42.8 °F 71% 29.56 in 10.0 mi South 20.7 mph - N/A   Overcast
6:36 PM 51.8 °F - 44.6 °F 76% 29.56 in 10.0 mi South 19.6 mph - N/A   Overcast
6:56 PM 51.8 °F - 44.6 °F 76% 29.57 in 10.0 mi South 16.1 mph - N/A   Overcast
7:16 PM 51.8 °F - 44.6 °F 76% 29.57 in 10.0 mi South 21.9 mph 26.5 mph N/A   Overcast
7:36 PM 51.8 °F - 44.6 °F 76% 29.57 in 10.0 mi South 23.0 mph - N/A   Overcast
7:56 PM 51.8 °F - 44.6 °F 76% 29.57 in 10.0 mi South 18.4 mph - N/A   Overcast
8:16 PM 51.8 °F - 44.6 °F 76% 29.57 in 10.0 mi South 19.6 mph - N/A   Mostly Cloudy
8:36 PM 50.0 °F - 46.4 °F 87% 29.57 in 9.0 mi South 21.9 mph - N/A   Mostly Cloudy
8:56 PM 51.8 °F - 44.6 °F 76% 29.58 in 10.0 mi South 20.7 mph - N/A   Mostly Cloudy
9:16 PM 50.0 °F - 44.6 °F 82% 29.58 in 10.0 mi South 19.6 mph - N/A   Mostly Cloudy
9:36 PM 50.0 °F - 42.8 °F 76% 29.59 in 10.0 mi South 18.4 mph - N/A   Overcast
9:56 PM 50.0 °F - 44.6 °F 82% 29.59 in 10.0 mi South 17.3 mph - N/A   Overcast
10:16 PM 50.0 °F - 44.6 °F 82% 29.60 in 10.0 mi South 17.3 mph - N/A   Overcast
10:36 PM 50.0 °F - 44.6 °F 82% 29.60 in 10.0 mi South 19.6 mph - N/A   Mostly Cloudy
10:56 PM 50.0 °F - 44.6 °F 82% 29.60 in 10.0 mi South 18.4 mph - N/A   Overcast
11:16 PM 50.0 °F - 44.6 °F 82% 29.61 in 5.0 mi South 20.7 mph - N/A   Mostly Cloudy
11:36 PM 50.0 °F - 44.6 °F 82% 29.61 in 10.0 mi South 16.1 mph - N/A   Overcast
11:56 PM 50.0 °F - 44.6 °F 82% 29.61 in 10.0 mi South 18.4 mph - N/A   Overcast